This demonstration page uses our WeatherBlox Daily Observations layout. Learn more.

Left ArrowRight Arrow

39.12711, -84.51439

Hourly Observations for September 14, 2022

Temp ( °F °C ) Dew Point ( °F °C ) Humidity (%) Winds ( mph kmh ) Pressure ( in mb ) Visibility ( mi km ) Precip ( " mm )
12:53 am 00:53 Cloudy 63 17.2 61 16.1 93 93 Calm 30.03 1017 10 16 0.00 0.00
1:53 am 01:53 Cloudy 63 17.2 61 16.1 93 93 Calm 30.03 1017 10 16 0.00 0.00
2:53 am 02:53 Mostly Cloudy 63 17.2 61 16.1 93 93 NNW 3 6 30.03 1017 10 16 0.00 0.00
3:53 am 03:53 Mostly Clear 61 16.1 60 15.6 97 97 Calm 30.04 1017 7 11 0.00 0.00
4:32 am 04:32 Clear with Fog 59 15 59 15 100 100 Calm 30.06 1018 0 0 0.00 0.00
4:53 am 04:53 Clear with Fog 59 15 59 15 100 100 Calm 30.05 1018 0 0 0.00 0.00
5:22 am 05:22 Mostly Clear with Mist and Fog 58 14.4 57 13.9 97 97 Calm 30.07 1018 1 1 0.00 0.00
5:35 am 05:35 Mostly Clear with Mist and Fog 58 14.4 58 14.4 100 100 Calm 30.07 1018 3 4 0.00 0.00
5:42 am 05:42 Mostly Clear with Mist and Fog 58 14.4 58 14.4 100 100 Calm 30.07 1018 6 10 0.00 0.00
5:53 am 05:53 Clear with Mist and Fog 58 14.4 58 14.4 100 100 Calm 30.06 1018 6 10 0.00 0.00
6:06 am 06:06 Clear with Mist and Fog 57 13.9 57 13.9 100 100 Calm 30.08 1019 2 2 0.00 0.00
6:15 am 06:15 Clear with Fog 57 13.9 57 13.9 100 100 Calm 30.08 1019 1 1 0.00 0.00
6:20 am 06:20 Clear with Mist and Fog 58 14.4 57 13.9 97 97 Calm 30.08 1019 2 3 0.00 0.00
6:27 am 06:27 Clear with Mist and Fog 57 13.9 57 13.9 100 100 Calm 30.09 1019 5 8 0.00 0.00
6:38 am 06:38 Mostly Clear with Fog 57 13.9 57 13.9 100 100 Calm 30.09 1019 1 1 0.00 0.00
6:46 am 06:46 Mostly Clear with Fog 57 13.9 57 13.9 100 100 Calm 30.09 1019 0 0 0.00 0.00
6:53 am 06:53 Partly Cloudy with Mist and Fog 57 13.9 57 13.9 100 100 Calm 30.09 1019 3 5 0.00 0.00
7:02 am 07:02 Partly Cloudy with Mist and Fog 56 13.3 56 13.3 100 100 Calm 30.10 1019 2 3 0.00 0.00
7:53 am 07:53 Mostly Cloudy with Mist and Fog 57 13.9 56 13.3 96 96 Calm 30.11 1020 4 6 0.00 0.00
8:34 am 08:34 Cloudy with Mist and Fog 60 15.6 60 15.6 100 100 Calm 30.14 1021 3 4 0.00 0.00
8:53 am 08:53 Mostly Cloudy with Mist and Fog 62 16.7 61 16.1 96 96 Calm 30.13 1020 3 5 0.00 0.00
9:07 am 09:07 Partly Cloudy with Mist and Fog 63 17.2 62 16.7 97 97 Calm 30.13 1020 6 10 0.00 0.00
9:53 am 09:53 Sunny 67 19.4 63 17.2 87 87 Calm 30.14 1021 10 16 0.00 0.00
10:36 am 10:36 Mostly Cloudy 71 21.7 62 16.7 73 73 WNW 3 6 30.16 1021 10 16 0.00 0.00
10:53 am 10:53 Mostly Cloudy 72 22.2 63 17.2 73 73 W 3 6 30.16 1021 10 16 0.00 0.00
11:53 am 11:53 Mostly Cloudy 75 23.9 63 17.2 66 66 Calm 30.16 1022 10 16 0.00 0.00
12:53 pm 12:53 Mostly Cloudy 75 23.9 61 16.1 62 62 NNE 7 11 30.16 1021 10 16 0.00 0.00
1:53 pm 13:53 Mostly Cloudy 77 25 61 16.1 58 58 W 3 6 30.15 1021 10 16 0.00 0.00
2:53 pm 14:53 Mostly Cloudy 77 25 61 16.1 58 58 E 5 7 30.14 1021 10 16 0.00 0.00
3:53 pm 15:53 Mostly Cloudy 77 25 60 15.6 56 56 Calm 30.13 1020 10 16 0.00 0.00
4:53 pm 16:53 Mostly Cloudy 79 26.1 60 15.6 52 52 Calm 30.12 1020 10 16 0.00 0.00
5:53 pm 17:53 Mostly Sunny 78 25.6 61 16.1 56 56 Calm 30.12 1020 10 16 0.00 0.00
6:53 pm 18:53 Mostly Sunny 76 24.4 65 18.3 69 69 Calm 30.12 1020 10 16 0.00 0.00
7:53 pm 19:53 Clear 70 21.1 65 18.3 84 84 Calm 30.13 1020 10 16 0.00 0.00
8:53 pm 20:53 Clear 66 18.9 63 17.2 90 90 Calm 30.15 1021 9 14 0.00 0.00
9:53 pm 21:53 Clear 63 17.2 62 16.7 97 97 Calm 30.16 1022 7 11 0.00 0.00
10:53 pm 22:53 Clear 62 16.7 62 16.7 100 100 Calm 30.17 1022 10 16 0.00 0.00
11:37 pm 23:37 Clear with Mist and Fog 62 16.7 62 16.7 100 100 Calm 30.18 1022 2 2 0.00 0.00
11:49 pm 23:49 Clear with Mist and Fog 61 16 61 16 100 100 Calm 30.19 1022 1 1 0.00 0.00
11:53 pm 23:53 Clear with Mist and Fog 61 16.1 61 16.1 100 100 Calm 30.19 1022 1 1 0.00 0.00

Powered by AerisWeather